Time,TemperatureF,DewpointF,PressureIn,WindDirection,WindDirectionDegrees,WindSpeedMPH,WindSpeedGustMPH,Humidity,HourlyPrecipIn,Conditions,Clouds,dailyrainin,SoftwareType,DateUTC
2013-04-13 00:22:00,68.7,68.1,29.86,NNW,337,0.0,-999.0,98,-99.99,,,0.00,Acu-Link.com,2013-04-13 10:22:00,
2013-04-13 00:37:00,68.9,68.3,29.85,NNW,337,0.0,-999.0,98,-99.99,,,0.00,Acu-Link.com,2013-04-13 10:37:00,
2013-04-13 00:52:00,69.3,69.0,29.87,NNW,337,0.0,-999.0,99,-99.99,,,0.00,Acu-Link.com,2013-04-13 10:52:00,
2013-04-13 01:07:00,69.3,69.0,29.85,NNW,337,0.0,-999.0,99,-99.99,,,0.00,Acu-Link.com,2013-04-13 11:07:00,
2013-04-13 01:53:00,69.8,69.5,29.84,NNW,337,0.0,-999.0,99,-99.99,,,0.00,Acu-Link.com,2013-04-13 11:53:00,
2013-04-13 02:08:00,70.0,69.7,29.82,NNW,337,0.0,-999.0,99,-99.99,,,0.00,Acu-Link.com,2013-04-13 12:08:00,
2013-04-13 02:23:00,70.0,69.7,29.83,NNW,337,0.0,-999.0,99,-99.99,,,0.00,Acu-Link.com,2013-04-13 12:23:00,
2013-04-13 02:38:00,70.0,69.7,29.85,NNW,337,0.0,-999.0,99,-99.99,,,0.00,Acu-Link.com,2013-04-13 12:38:00,
2013-04-13 02:54:00,70.2,69.9,29.83,NNW,337,0.0,-999.0,99,-99.99,,,0.00,Acu-Link.com,2013-04-13 12:54:00,
2013-04-13 03:09:00,70.2,69.9,29.81,NNW,337,0.0,-999.0,99,-99.99,,,0.00,Acu-Link.com,2013-04-13 13:09:00,
2013-04-13 03:24:00,69.8,69.5,29.82,NNW,337,0.0,-999.0,99,-99.99,,,0.00,Acu-Link.com,2013-04-13 13:24:00,
2013-04-13 03:40:00,69.6,69.3,29.83,NNW,337,0.0,-999.0,99,-99.99,,,0.00,Acu-Link.com,2013-04-13 13:40:00,
2013-04-13 04:10:00,69.4,69.1,29.83,NNW,337,0.0,-999.0,99,-99.99,,,0.00,Acu-Link.com,2013-04-13 14:10:00,
2013-04-13 04:26:00,69.4,69.1,29.83,NNW,337,0.0,-999.0,99,-99.99,,,0.00,Acu-Link.com,2013-04-13 14:26:00,
2013-04-13 05:11:00,69.4,69.1,29.78,SSE,157,0.0,-999.0,99,-99.99,,,0.00,Acu-Link.com,2013-04-13 15:11:00,
2013-04-13 05:27:00,69.6,69.3,29.77,South,180,0.0,-999.0,99,-99.99,,,0.00,Acu-Link.com,2013-04-13 15:27:00,
2013-04-13 05:42:00,69.8,69.5,29.77,West,270,1.1,-999.0,99,-99.99,,,0.00,Acu-Link.com,2013-04-13 15:42:00,
2013-04-13 05:57:00,70.0,69.7,29.76,NNE,22,0.0,-999.0,99,-99.99,,,0.00,Acu-Link.com,2013-04-13 15:57:00,
2013-04-13 06:12:00,70.2,69.3,29.75,SW,225,0.0,-999.0,97,-99.99,,,0.00,Acu-Link.com,2013-04-13 16:12:00,
2013-04-13 06:28:00,70.0,69.1,29.74,ENE,67,0.0,-999.0,97,-99.99,,,0.00,Acu-Link.com,2013-04-13 16:28:00,
2013-04-13 06:43:00,69.8,68.6,29.77,SW,225,1.1,-999.0,96,-99.99,,,0.00,Acu-Link.com,2013-04-13 16:43:00,
2013-04-13 07:29:00,71.2,70.3,29.77,East,90,0.0,-999.0,97,-99.99,,,0.00,Acu-Link.com,2013-04-13 17:29:00,
2013-04-13 07:44:00,72.0,70.8,29.78,North,0,0.0,-999.0,96,-99.99,,,0.00,Acu-Link.com,2013-04-13 17:44:00,
2013-04-13 07:59:00,72.7,70.6,29.78,SSW,202,0.0,-999.0,93,-99.99,,,0.00,Acu-Link.com,2013-04-13 17:59:00,
2013-04-13 08:14:00,73.6,70.8,29.78,NNW,337,1.7,-999.0,91,-99.99,,,0.00,Acu-Link.com,2013-04-13 18:14:00,
2013-04-13 08:29:00,74.1,70.3,29.79,NNE,22,2.2,-999.0,88,-99.99,,,0.00,Acu-Link.com,2013-04-13 18:29:00,
2013-04-13 08:44:00,74.7,70.2,29.78,WSW,247,2.7,-999.0,86,-99.99,,,0.00,Acu-Link.com,2013-04-13 18:44:00,
2013-04-13 09:00:00,77.5,70.8,29.78,West,270,1.7,-999.0,80,-99.99,,,0.00,Acu-Link.com,2013-04-13 19:00:00,
2013-04-13 09:15:00,79.3,70.7,29.78,SSW,202,0.0,-999.0,75,-99.99,,,0.00,Acu-Link.com,2013-04-13 19:15:00,
2013-04-13 09:30:00,81.0,71.1,29.79,NW,315,2.7,-999.0,72,-99.99,,,0.00,Acu-Link.com,2013-04-13 19:30:00,
2013-04-13 09:46:00,81.3,70.6,29.78,WSW,247,3.2,-999.0,70,-99.99,,,0.00,Acu-Link.com,2013-04-13 19:46:00,
2013-04-13 10:01:00,79.7,70.3,29.78,WSW,247,1.7,-999.0,73,-99.99,,,0.00,Acu-Link.com,2013-04-13 20:01:00,
2013-04-13 10:16:00,79.3,69.1,29.80,NNE,22,1.1,-999.0,71,-99.99,,,0.00,Acu-Link.com,2013-04-13 20:16:00,
2013-04-13 10:31:00,80.4,69.7,29.78,SW,225,0.0,-999.0,70,-99.99,,,0.00,Acu-Link.com,2013-04-13 20:31:00,
2013-04-13 10:46:00,79.3,69.5,29.80,SSW,202,1.7,-999.0,72,-99.99,,,0.00,Acu-Link.com,2013-04-13 20:46:00,
2013-04-13 11:17:00,79.2,70.2,29.80,SE,135,2.7,-999.0,74,-99.99,,,0.00,Acu-Link.com,2013-04-13 21:17:00,
2013-04-13 11:32:00,79.0,71.5,29.82,West,270,2.2,-999.0,78,-99.99,,,0.00,Acu-Link.com,2013-04-13 21:32:00,
2013-04-13 11:47:00,79.0,70.8,29.81,SSW,202,2.7,-999.0,76,-99.99,,,0.00,Acu-Link.com,2013-04-13 21:47:00,
2013-04-13 12:02:00,77.7,69.9,29.83,SSW,202,2.7,-999.0,77,-99.99,,,0.00,Acu-Link.com,2013-04-13 22:02:00,
2013-04-13 12:17:00,78.1,70.7,29.83,SW,225,3.2,-999.0,78,-99.99,,,0.00,Acu-Link.com,2013-04-13 22:17:00,
2013-04-13 12:32:00,81.0,71.1,29.83,SSW,202,3.2,-999.0,72,-99.99,,,0.00,Acu-Link.com,2013-04-13 22:32:00,
2013-04-13 12:48:00,79.2,70.2,29.82,SSW,202,2.2,-999.0,74,-99.99,,,0.00,Acu-Link.com,2013-04-13 22:48:00,
2013-04-13 13:03:00,80.1,71.0,29.81,SSW,202,3.2,-999.0,74,-99.99,,,0.00,Acu-Link.com,2013-04-13 23:03:00,
2013-04-13 13:18:00,79.2,70.6,29.81,SW,225,2.2,-999.0,75,-99.99,,,0.00,Acu-Link.com,2013-04-13 23:18:00,
2013-04-13 13:34:00,78.3,70.9,29.80,SW,225,2.2,-999.0,78,-99.99,,,0.00,Acu-Link.com,2013-04-13 23:34:00,
2013-04-13 13:49:00,78.1,70.3,29.77,SW,225,1.7,-999.0,77,-99.99,,,0.00,Acu-Link.com,2013-04-13 23:49:00,
2013-04-13 14:04:00,78.6,69.2,29.77,SSW,202,1.7,-999.0,73,-99.99,,,0.00,Acu-Link.com,2013-04-14 00:04:00,
2013-04-13 14:19:00,79.5,68.4,29.76,WSW,247,2.2,-999.0,69,-99.99,,,0.00,Acu-Link.com,2013-04-14 00:19:00,
2013-04-13 14:34:00,79.9,68.4,29.77,SW,225,0.0,-999.0,68,-99.99,,,0.00,Acu-Link.com,2013-04-14 00:34:00,
2013-04-13 14:50:00,81.7,69.2,29.76,SSW,202,1.7,-999.0,66,-99.99,,,0.00,Acu-Link.com,2013-04-14 00:50:00,
2013-04-13 15:05:00,80.6,68.2,29.79,West,270,1.7,-999.0,66,-99.99,,,0.00,Acu-Link.com,2013-04-14 01:05:00,
2013-04-13 15:20:00,81.9,69.8,29.76,WSW,247,0.0,-999.0,67,-99.99,,,0.00,Acu-Link.com,2013-04-14 01:20:00,
2013-04-13 15:35:00,81.3,70.1,29.76,East,90,1.7,-999.0,69,-99.99,,,0.00,Acu-Link.com,2013-04-14 01:35:00,
2013-04-13 15:51:00,80.1,69.8,29.77,WNW,292,1.7,-999.0,71,-99.99,,,0.00,Acu-Link.com,2013-04-14 01:51:00,
2013-04-13 16:21:00,78.4,68.6,29.77,SSW,202,0.0,-999.0,72,-99.99,,,0.00,Acu-Link.com,2013-04-14 02:21:00,
2013-04-13 16:52:00,77.2,70.5,29.78,WSW,247,2.7,-999.0,80,-99.99,,,0.00,Acu-Link.com,2013-04-14 02:52:00,
2013-04-13 17:07:00,76.5,70.6,29.75,South,180,0.0,-999.0,82,-99.99,,,0.00,Acu-Link.com,2013-04-14 03:07:00,
2013-04-13 17:22:00,75.7,70.9,29.75,South,180,2.7,-999.0,85,-99.99,,,0.00,Acu-Link.com,2013-04-14 03:22:00,
2013-04-13 17:37:00,75.4,70.9,29.75,SSW,202,0.0,-999.0,86,-99.99,,,0.00,Acu-Link.com,2013-04-14 03:37:00,
2013-04-13 17:52:00,75.0,70.9,29.78,South,180,2.2,-999.0,87,-99.99,,,0.00,Acu-Link.com,2013-04-14 03:52:00,
2013-04-13 18:07:00,74.8,70.7,29.77,SW,225,0.0,-999.0,87,-99.99,,,0.00,Acu-Link.com,2013-04-14 04:07:00,
2013-04-13 23:26:00,70.5,69.6,29.81,ESE,112,0.0,-999.0,97,-99.99,,,0.00,Acu-Link.com,2013-04-14 09:26:00,
2013-04-13 23:42:00,70.5,69.6,29.82,SSE,157,0.0,-999.0,97,-99.99,,,0.00,Acu-Link.com,2013-04-14 09:42:00,
2013-04-13 23:57:00,70.3,69.7,29.81,ENE,67,0.0,-999.0,98,-99.99,,,0.00,Acu-Link.com,2013-04-14 09:57:00,